logo
Rechercher aéroport 
image banner adimage banner adimage banner ad
image banner ad

KSNS - Salinas Muni

Situé à Salinas, United States

ICAO - SNS, IATA -

Données fournies par Airmate  

Information générale

Coordonnées: N36°39'46" W121°36'23"
Élévation : 84 feet MSL.
Variation magnétique : 16° East
Voir autres Aéroports à California

Données opérationnelles

Special qualification required
Heure actuelle UTC:
Heure actuelle locale:
Météo
METAR: KSNS 281153Z AUTO 16005KT 3SM R31/3500VP6000FT BR OVC004 14/12 A2999 RMK AO2 SLP163 T01390117 10167 20133 50001 TSNO
TAF: KSNS 281140Z 2812/2912 00000KT 6SM BR OVC005 TEMPO 2812/2815 OVC004 FM281700 29005KT P6SM SKC FM282100 27011KT P6SM SKC FM290300 28007KT P6SM BKN015 FM290700 30005KT P6SM OVC007
Voir NOTAMs / SUP AIP / TFR affectant cet aéroport [VIEW]
Fréquences de communication: [VIEW]

Pistes:

Identifiant RWYQFULongueur (ft)Largeur (ft)SurfaceLDA (ft)
0897°6004150ASPH
26277°6004150ASPH
13148°4825150ASPH
31328°4825150ASPH

Coordonnées de l'aéroport

Adresse: Salinas United States

Autres services d'aviation

Écoles de pilotage

Aerodynamic Aviation - Salinas

Aerodynamic Aviation - Salinas

Vue satellite de KSNS